Location: Banios
(43.0451°N, 0.2335°E)
Time: 13:21:36
(UTC+00:00)

Cosmos 1825 Rocket - Pass Details

Date: 25 January 2021
Orbit: 604 x 630 km, 82.5° (Epoch: 25 February)

Event Time Altitude Azimuth Distance (km) Brightness Sun altitude
Rises 05:56:23 0° 353° (N) 2,930 6.8 -15.4°
Reaches altitude 10° 05:58:39 10° 356° (N) 2,019 6.0 -15.0°
Maximum altitude 06:03:07 71° 81° (E) 669 3.9 -14.2°
Drops below altitude 10° 06:07:33 10° 166° (SSE) 2,002 6.5 -13.5°
Sets 06:09:47 0° 168° (SSE) 2,903 7.4 -13.1°
